Simultaneous Nadir Overpasses (SNOs) Predictions

Prediction of SNOs between TERRA and METOP-C Satellite Orbit:

Table of predicted SNOs for the next 14.0 days since TLE Epoch: 9/14/2024
Index Date (TERRA) Time (TERRA) Lat,Lon (TERRA) SZA (TERRA ) Date (METOP-C) Time (METOP-C) Lat,Lon (METOP-C) SZA (METOP-C ) Distance(km) Time Diff (sec)
1 09/16/2024 11:48:35 -72.10, 173.98 110.18 09/16/2024 11:47:48 -72.09, 173.94 110.18 1.54 47
2 09/16/2024 12:37:18 74.01, -14.61 71.63 09/16/2024 12:37:50 74.02, -14.55 71.64 2.31 32
3 09/19/2024 02:18:26 -72.51, -42.83 108.81 09/19/2024 02:17:59 -72.51, -42.81 108.80 0.57 27
4 09/19/2024 03:07:18 73.93, 127.67 72.56 09/19/2024 03:08:11 73.93, 127.65 72.55 0.73 53
5 09/21/2024 16:48:16 -72.78, 100.16 107.54 09/21/2024 16:48:11 -72.79, 100.19 107.53 1.04 5
6 09/21/2024 17:36:07 77.23, -80.44 76.91 09/21/2024 17:37:20 77.13, -79.72 76.83 21.17 73
7 09/24/2024 06:29:22 70.91, 71.84 71.72 09/24/2024 06:28:24 70.90, 71.77 71.72 2.76 58
8 09/24/2024 07:18:07 -72.94,-117.06 106.39 09/24/2024 07:18:26 -72.94,-117.07 106.39 0.20 19
9 09/26/2024 20:59:02 71.53,-144.69 73.30 09/26/2024 20:58:29 71.53,-144.70 73.31 0.14 33



Historial Predications of SNOs between TERRA and METOP-C
